Weather History for KHJO - December, 2012

Change the Weather History Date:

Wednesday, December 5, 2012

  Actual Average Record
Temperature  
Mean Temperature 56 °F 46 °F  
Max Temperature 66 °F 57 °F 66 °F (2012)
Min Temperature 46 °F 35 °F 21 °F (2013)
Degree Days  
Heating Degree Days 9    
Month to date heating degree days 37  
Since 1 July heating degree days 436  
Cooling Degree Days 0    
Month to date cooling degree days 0  
Year to date cooling degree days 2018  
Growing Degree Days 5 (Base 50)    
Moisture  
Dew Point 49 °F    
Average Humidity 82    
Maximum Humidity 100    
Minimum Humidity 63    
Precipitation  
Precipitation 0.01 in 0.03 in 0.26 in (2010)
Month to date precipitation 0.31 0.11  
Year to date precipitation 5.37 8.58  
Since 1 July precipitation 0.79 1.82  
Snow  
Snow 0.00 in - - ()
Month to date snowfall 0.0  
Since 1 July snowfall 0.0  
Snow Depth 0.00 in    
Sea Level Pressure  
Sea Level Pressure 30.18 in    
Wind  
Wind Speed 3 mph (NNW)    
Max Wind Speed 10 mph    
Max Gust Speed 13 mph    
Visibility 3 miles    
Events Fog    
T = Trace of Precipitation, MM = Missing Value Source: NWS Daily Summary

Daily Weather History Graph

Daily Weather History Graph

Search for Another Location

Airport or City:

Trip Planner

Search our weather history database for the weather conditions in past years. The results will help you decide how hot, cold, wet, or windy it might be!

Date:

Astronomy

Dec. 05, 2012 Rise Set
Actual Time 6:55 AM PST 4:43 PM PST
Civil Twilight 6:27 AM PST 5:11 PM PST
Nautical Twilight 5:55 AM PST 5:43 PM PST
Astronomical Twilight 5:23 AM PST 6:14 PM PST
Moon 11:29 PM PST (12/5) 11:29 AM PST (12/5)
Length of Visible Light 10h 44m
Length of Day
9h 47m
Waning Gibbous, 58% of the Moon is Illuminated
Dec 5
Waning Gibbous
Dec 6
Last Quarter
Dec 13
New
Dec 19
First Quarter
Dec 28
Full

Hourly Weather History & Observations

Time (PST) Temp. Windchill Dew Point Humidity Pressure Visibility Wind Dir Wind Speed Gust Speed Precip Events Conditions
12:06 AM 51.8 °F - 50.0 °F 94% 30.22 in 1.8 mi ENE 4.6 mph - N/A   Clear
12:33 AM 50.0 °F - 48.2 °F 94% 30.22 in 0.8 mi Calm Calm - N/A   Clear
12:44 AM 48.2 °F - 48.2 °F 100% 30.21 in 0.2 mi Calm Calm - N/A Fog Fog
12:53 AM 50.0 °F - 48.9 °F 96% 30.22 in 0.2 mi Calm Calm - N/A Fog Fog
1:10 AM 46.4 °F - 46.4 °F 100% 30.22 in 1.0 mi Calm Calm - N/A   Mist
1:12 AM 48.2 °F - 46.4 °F 93% 30.22 in 0.5 mi Calm Calm - N/A Fog Fog
1:21 AM 46.4 °F - 44.6 °F 93% 30.22 in 0.2 mi Calm Calm - N/A Fog Fog
1:53 AM 46.0 °F 44.8 °F 45.0 °F 96% 30.22 in 0.2 mi SE 3.5 mph - N/A Fog Fog
2:32 AM 46.4 °F - 46.4 °F 100% 30.21 in 0.2 mi Calm Calm - N/A Fog Fog
2:42 AM 46.4 °F 43.5 °F 44.6 °F 93% 30.20 in 0.2 mi ESE 5.8 mph - N/A Fog Fog
2:53 AM 48.0 °F - 46.9 °F 96% 30.21 in 0.2 mi East 3.5 mph - N/A Fog Fog
3:04 AM 48.2 °F - 46.4 °F 93% 30.20 in 0.2 mi Calm Calm - N/A Fog Fog
3:53 AM 48.0 °F - 46.0 °F 93% 30.21 in 0.2 mi Calm Calm - N/A Fog Fog
4:53 AM 46.9 °F - 46.0 °F 97% 30.19 in 0.2 mi Calm Calm - N/A Fog Fog
6:53 AM 46.9 °F - 46.9 °F 100% 30.20 in 0.2 mi Calm Calm - N/A Fog Fog
7:53 AM 48.0 °F - 46.9 °F 96% 30.21 in 0.2 mi Calm Calm - N/A Fog Fog
8:31 AM 48.2 °F - 46.4 °F 93% 30.20 in 0.2 mi SSW 5.8 mph - N/A Fog Fog
8:53 AM 48.9 °F - 48.0 °F 97% 30.21 in 0.2 mi South 3.5 mph - N/A Fog Fog
9:33 AM 50.0 °F - 50.0 °F 100% 30.21 in 0.8 mi SSE 3.5 mph - N/A   Overcast
9:42 AM 51.8 °F - 50.0 °F 94% 30.20 in 1.5 mi SE 3.5 mph - N/A   Overcast
9:53 AM 51.1 °F - 51.1 °F 100% 30.22 in 2.5 mi Calm Calm - N/A   Mostly Cloudy
10:01 AM 51.8 °F - 50.0 °F 94% 30.21 in 2.5 mi Calm Calm - N/A   Scattered Clouds
10:09 AM 51.8 °F - 51.8 °F 100% 30.21 in 3.0 mi Calm Calm - N/A   Partly Cloudy
10:53 AM 57.0 °F - 53.1 °F 87% 30.20 in 3.0 mi Calm Calm - N/A   Clear
11:53 AM 61.0 °F - 54.0 °F 78% 30.17 in 3.0 mi Calm Calm - N/A   Haze
12:53 PM 64.0 °F - 52.0 °F 65% 30.16 in 4.0 mi NNW 6.9 mph - N/A   Haze
1:53 PM 63.0 °F - 53.1 °F 70% 30.14 in 5.0 mi North 5.8 mph - N/A   Haze
2:53 PM 64.9 °F - 52.0 °F 63% 30.10 in 6.0 mi Calm Calm - N/A   Haze
3:53 PM 64.0 °F - 52.0 °F 65% 30.09 in 6.0 mi SSW 3.5 mph - N/A   Haze
4:53 PM 64.0 °F - 53.1 °F 67% 30.08 in 5.0 mi WNW 6.9 mph - N/A   Haze
5:53 PM 61.0 °F - 53.1 °F 75% 30.09 in 6.0 mi NNW 4.6 mph - N/A   Haze
6:53 PM 61.0 °F - 53.1 °F 75% 30.09 in 6.0 mi North 6.9 mph - N/A   Haze
7:53 PM 57.9 °F - 51.1 °F 78% 30.11 in 9.0 mi North 3.5 mph - N/A   Overcast
8:53 PM 57.0 °F - 51.1 °F 81% 30.11 in 8.0 mi Calm Calm - N/A   Overcast
9:53 PM 57.9 °F - 52.0 °F 81% 30.11 in 9.0 mi NNW 4.6 mph - N/A   Overcast
10:53 PM 57.9 °F - 52.0 °F 81% 30.12 in 7.0 mi WNW 3.5 mph - N/A   Overcast
11:53 PM 57.0 °F - 53.1 °F 87% 30.10 in 6.0 mi NW 3.5 mph - N/A   Overcast